This demonstration page uses our WeatherBlox Daily Observations layout. Learn more.

Hourly Observations for September 5, 2019

Temp ( °F °C ) Dew Point ( °F °C ) Humidity (%) Winds ( mph kmh ) Pressure ( in mb ) Visibility ( mi km ) Precip ( " mm )
12:15 am 00:15 Partly Cloudy 79 26 64 18 61 61 NNE 3 6 30 1016 10 16.09344 0 0
12:35 am 00:35 Clear 79 26 64 18 61 61 NNE 5 7 30.03 1017 10 16.09344 0 0
12:55 am 00:55 Clear 77 25 64 18 65 65 NNE 5 7 30.03 1017 10 16.09344 0 0
1:15 am 01:15 Partly Cloudy 77 25 64 18 65 65 NE 6 9 30.03 1017 10 16.09344 0 0
1:35 am 01:35 Clear 77 25 64 18 65 65 NE 6 9 30.03 1017 10 16.09344 0 0
1:55 am 01:55 Clear 77 25 64 18 65 65 NNE 6 9 30.03 1017 10 16.09344 0 0
2:15 am 02:15 Clear 75 24 64 18 69 69 NNE 3 6 30.03 1017 10 16.09344 0 0
2:35 am 02:35 Partly Cloudy 73 23 64 18 74 74 N 7 11 30.03 1017 10 16.09344 0 0
2:55 am 02:55 Mostly Cloudy 73 23 64 18 74 74 N 9 15 30.03 1017 10 16.09344 0 0
3:15 am 03:15 Partly Cloudy 73 23 63 17 69 69 NNE 10 17 30.03 1017 10 16.09344 0 0
3:35 am 03:35 Mostly Cloudy 73 23 63 17 69 69 NNE 7 11 30.03 1017 10 16.09344 0 0
3:55 am 03:55 Partly Cloudy 72 22 63 17 73 73 NNE 8 13 30.03 1017 10 16.09344 0 0
4:15 am 04:15 Partly Cloudy 72 22 63 17 73 73 NNE 8 13 30.03 1017 10 16.09344 0 0
4:35 am 04:35 Partly Cloudy 72 22 63 17 73 73 NNE 8 13 30.06 1018 10 16.09344 0 0
4:55 am 04:55 Partly Cloudy 72 22 63 17 73 73 NNE 13 20 30.06 1018 10 16.09344 0 0
5:15 am 05:15 Partly Cloudy 72 22 63 17 73 73 NNE 10 17 30.06 1018 10 16.09344 0 0
5:35 am 05:35 Partly Cloudy 70 21 63 17 78 78 NE 7 11 30.06 1018 10 16.09344 0 0
5:55 am 05:55 Clear 70 21 63 17 78 78 NNE 10 17 30.06 1018 10 16.09344 0 0
6:15 am 06:15 Clear 70 21 61 16 73 73 NNE 9 15 30.06 1018 10 16.09344 0 0
6:35 am 06:35 Clear 68 20 61 16 78 78 NNE 10 17 30.09 1019 10 16.09344 0 0
6:55 am 06:55 Sunny 68 20 61 16 78 78 NNE 12 19 30.09 1019 10 16.09344 0 0
7:15 am 07:15 Sunny 68 20 61 16 78 78 NNE 8 13 30.09 1019 10 16.09344 0 0
7:35 am 07:35 Sunny 68 20 61 16 78 78 NNE 7 11 30.09 1019 10 16.09344 0 0
7:55 am 07:55 undefined N/A N/A N/A undefined N/A N/A N/A 0 0
8:15 am 08:15 undefined N/A N/A N/A undefined N/A N/A N/A 0 0
8:35 am 08:35 undefined N/A N/A N/A undefined N/A N/A N/A 0 0
8:55 am 08:55 undefined N/A N/A N/A undefined N/A N/A N/A 0 0
9:15 am 09:15 Cloudy 68 20 61 16 78 78 NNE 9 15 30.12 1020 10 16.09344 0 0
9:35 am 09:35 Cloudy 68 20 61 16 78 78 NE 9 15 30.09 1019 10 16.09344 0 0
9:55 am 09:55 Mostly Cloudy 68 20 61 16 78 78 NNE 9 15 30.09 1019 10 16.09344 0 0
10:15 am 10:15 Sunny 68 20 61 16 78 78 NNE 8 13 30.09 1019 10 16.09344 0 0
10:35 am 10:35 Sunny 70 21 61 16 73 73 NNE 10 17 30.09 1019 10 16.09344 0 0
10:55 am 10:55 Sunny 70 21 61 16 73 73 NNE 9 15 30.09 1019 10 16.09344 0 0
11:15 am 11:15 Sunny 72 22 61 16 69 69 NNE 5 7 30.09 1019 10 16.09344 0 0
11:35 am 11:35 Sunny 72 22 63 17 73 73 NNE 10 17 30.09 1019 10 16.09344 0 0
11:55 am 11:55 Partly Cloudy 72 22 63 17 73 73 NNE 7 11 30.09 1019 10 16.09344 0 0
12:15 pm 12:15 Partly Cloudy 73 23 63 17 69 69 N 10 17 30.09 1019 10 16.09344 0 0
12:35 pm 12:35 Partly Cloudy 73 23 63 17 69 69 NNE 9 15 30.09 1019 10 16.09344 0 0
12:55 pm 12:55 Mostly Cloudy 73 23 63 17 69 69 NNE 6 9 30.09 1019 10 16.09344 0 0
1:15 pm 13:15 Mostly Cloudy 73 23 63 17 69 69 NNE 9 15 30.09 1019 10 16.09344 0 0
1:35 pm 13:35 Partly Cloudy 73 23 63 17 69 69 NNE 9 15 30.09 1019 10 16.09344 0 0
1:55 pm 13:55 Partly Cloudy 75 24 63 17 65 65 NE 8 13 30.06 1018 10 16.09344 0 0
2:15 pm 14:15 Partly Cloudy 77 25 63 17 61 61 NNE 9 15 30.06 1018 10 16.09344 0 0
2:35 pm 14:35 Partly Cloudy 77 25 63 17 61 61 NE 7 11 30.06 1018 10 16.09344 0 0
2:55 pm 14:55 Partly Cloudy 77 25 63 17 61 61 NE 10 17 30.06 1018 10 16.09344 0 0
3:15 pm 15:15 Sunny 77 25 63 17 61 61 ENE 7 11 30.06 1018 10 16.09344 0 0
3:35 pm 15:35 Mostly Cloudy 77 25 63 17 61 61 NE 10 17 30.03 1017 10 16.09344 0 0
3:55 pm 15:55 Mostly Cloudy 77 25 63 17 61 61 ENE 8 13 30.03 1017 10 16.09344 0 0
4:15 pm 16:15 Mostly Cloudy 77 25 63 17 61 61 NE 9 15 30.03 1017 10 16.09344 0 0
4:35 pm 16:35 Partly Cloudy 77 25 63 17 61 61 NNE 9 15 30.03 1017 10 16.09344 0 0
4:55 pm 16:55 Partly Cloudy 77 25 64 18 65 65 NE 10 17 30.03 1017 10 16.09344 0 0
5:15 pm 17:15 Partly Cloudy 75 24 63 17 65 65 NNE 8 13 30.03 1017 10 16.09344 0 0
5:35 pm 17:35 Mostly Cloudy 75 24 63 17 65 65 NE 6 9 30.03 1017 10 16.09344 0 0
5:55 pm 17:55 Cloudy 75 24 63 17 65 65 ENE 9 15 30.03 1017 10 16.09344 0 0
6:15 pm 18:15 Cloudy 75 24 64 18 69 69 NE 7 11 30.03 1017 10 16.09344 0 0
6:35 pm 18:35 Cloudy 73 23 63 17 69 69 NE 8 13 30.03 1017 10 16.09344 0 0
6:55 pm 18:55 Cloudy 73 23 63 17 69 69 NNE 10 17 30.03 1017 10 16.09344 0 0
7:15 pm 19:15 Cloudy 73 23 63 17 69 69 NNE 6 9 30.03 1017 10 16.09344 0 0
7:35 pm 19:35 Mostly Cloudy 73 23 63 17 69 69 NNE 7 11 30.03 1017 10 16.09344 0 0
7:55 pm 19:55 Mostly Cloudy 72 22 63 17 73 73 NE 7 11 30.03 1017 10 16.09344 0 0
8:15 pm 20:15 Mostly Cloudy 72 22 63 17 73 73 NE 8 13 30.03 1017 10 16.09344 0 0
8:35 pm 20:35 Mostly Cloudy 72 22 63 17 73 73 NE 8 13 30.03 1017 10 16.09344 0 0
8:55 pm 20:55 Cloudy 72 22 63 17 73 73 NE 6 9 30.03 1017 10 16.09344 0 0
9:15 pm 21:15 Mostly Cloudy 72 22 63 17 73 73 NE 7 11 30.03 1017 10 16.09344 0 0
9:35 pm 21:35 Partly Cloudy 70 21 63 17 78 78 ENE 5 7 30.03 1017 10 16.09344 0 0
9:55 pm 21:55 Partly Cloudy 70 21 63 17 78 78 NE 7 11 30.03 1017 10 16.09344 0 0
10:15 pm 22:15 Clear 70 21 63 17 78 78 NE 7 11 30.03 1017 10 16.09344 0 0
10:35 pm 22:35 Partly Cloudy 70 21 63 17 78 78 NNE 7 11 30.03 1017 10 16.09344 0 0
10:55 pm 22:55 Partly Cloudy 70 21 63 17 78 78 NNE 6 9 30 1016 10 16.09344 0 0
11:15 pm 23:15 Clear 68 20 63 17 83 83 NE 5 7 30 1016 10 16.09344 0 0
11:35 pm 23:35 Clear 68 20 63 17 83 83 NNE 5 7 30 1016 10 16.09344 0 0
11:55 pm 23:55 Clear 68 20 63 17 83 83 NNE 5 7 30 1016 10 16.09344 0 0

Powered by AerisWeather